[[{"header":{"parameterUnit":"m.s-1","parameterCategory":1,"la1":30.2992,"la2":30.254,"lo1":-89.0895,"lo2":-89.0443,"dy":0.0025,"dx":0.0025,"nx":19,"ny":19,"refTime":"2026-05-06T09:00:00:Z","depth":0,"parameterNumber":2,"parameterNumberName":"U-component_of_WINDS"},"data":[0,0,0,-2.2734,-2.2738,-2.2891,-2.2891,-2.31,-2.3102,0,0,0,0,0,0,0,0,0,0,0,-2.2695,-2.2697,-2.2734,-2.2738,-2.2891,-2.2891,-2.31,-2.3102,0,0,0,0,0,0,0,0,0,0,0,-2.2694,-2.2696,-2.2698,-2.2739,-2.2891,-2.2891,-2.3099,-2.298,0,0,0,0,0,0,0,0,0,0,-2.2829,-2.2799,-2.2696,-2.2698,-2.2739,-2.289,-2.2891,-2.2974,-2.2987,-2.3036,0,-2.3079,0,-2.3093,-2.3116,-2.3117,0,0,0,-2.2734,-2.2787,-2.2823,-2.2699,-2.2741,-2.289,-2.2821,-2.2981,-2.2996,-2.3053,-2.3081,-2.3089,-2.3097,-2.3118,-2.3119,-2.3405,-2.3406,0,0,-2.2726,-2.2727,-2.2812,-2.2833,-2.2808,-2.2816,-2.2825,-2.299,-2.3022,-2.3082,-2.3094,-2.31,-2.3119,-2.3121,-2.3403,-2.3405,0,0,0,-2.2704,-2.2721,-2.2752,-2.2824,-2.2851,-2.282,-2.2831,-2.3014,-2.3024,-2.3096,-2.3103,-2.3121,-2.3123,-2.3402,-2.3404,-2.3478,0,0,0,-2.2699,-2.2708,-2.2748,-2.2751,-2.2848,-2.2934,-2.2852,-2.3013,-2.3031,-2.3102,-2.3121,-2.3125,-2.34,-2.3403,-2.3472,-2.3513,0,0,0,-2.2683,-2.2706,-2.273,-2.275,-2.2816,-2.2931,-2.2951,-2.3017,-2.3036,-2.3117,-2.3126,-2.3399,-2.3402,-2.3467,-2.3505,-2.3587,0,0,0,-2.2668,-2.2797,-2.2731,-2.2878,-2.2814,-2.2975,-2.2949,-2.307,-2.3149,-2.3122,-2.34,-2.3404,-2.3466,-2.35,-2.3582,-2.3656,-2.3687,0,0,-2.2831,-2.2816,-2.2902,-2.2848,-2.302,-2.2952,-2.3135,-2.3209,-2.3217,-2.3342,-2.3349,-2.3474,-2.3504,-2.3586,-2.3861,-2.3886,0,0,0,-2.2954,-2.3016,-2.3062,-2.3135,-2.3191,-2.3243,-2.3287,-2.3313,-2.3419,-2.3281,-2.3526,-2.3544,-2.3592,-2.3628,-2.3649,-2.3689,-2.342,-2.342,-2.3419,-2.3189,-2.3189,-2.3331,-2.3349,-2.3421,-2.3463,-2.3521,-2.3564,-2.3547,-2.3605,-2.3642,-2.3809,-2.385,-2.3866,-2.3908,-2.3682,-2.3682,-2.3682,-2.3683,-2.3427,-2.3515,-2.3484,-2.3611,-2.3611,-2.3718,-2.3763,-2.3747,-2.3847,-2.3782,-2.3824,-2.3752,-2.3893,-2.393,-2.3688,-2.3687,-2.3686,-2.3686,-2.3685,-2.3581,-2.3622,-2.365,-2.3753,-2.3834,-2.3848,-2.3945,-2.3942,-2.3941,-2.3983,-2.4021,-2.402,-2.4018,-2.4001,-2.4002,-2.4002,-2.4003,-2.4003,-2.4004,-2.3728,-2.3757,-2.3837,-2.3905,-2.395,-2.401,-2.4051,-2.4096,-2.4146,-2.4136,-2.4137,-2.4113,-2.3906,-2.3854,-2.4013,-2.4011,-2.401,-2.4009,-2.4008,-2.397,-2.3914,-2.4038,-2.4083,-2.4161,-2.424,-2.4234,-2.4325,-2.4363,-2.441,-2.4376,-2.4224,-2.421,-2.4193,-2.415,-2.4376,-2.4376,-2.4376,-2.4376,-2.4099,-2.409,-2.4214,-2.4286,-2.4356,-2.4362,-2.4502,-2.4535,-2.4561,-2.4584,-2.4551,-2.4493,-2.4476,-2.4472,-2.4449,-2.4409,-2.4696,-2.4696,-2.4696,-2.4247,-2.4244,-2.4364,-2.4385,-2.4445,-2.4497,-2.4628,-2.4712,-2.473,-2.4709,-2.4601,-2.4588,-2.4494,-2.4464,-2.4442,-2.4406,-2.4332,0,0]},{"header":{"parameterUnit":"m.s-1","parameterCategory":1,"la1":30.2992,"la2":30.254,"lo1":-89.0895,"lo2":-89.0443,"dy":0.0025,"dx":0.0025,"nx":19,"ny":19,"refTime":"2026-05-06T09:00:00:Z","depth":0,"parameterNumber":3,"parameterNumberName":"V-component_of_WINDS"},"data":[0,0,0,-2.2044,-2.2044,-2.2026,-2.2026,-2.2012,-2.2012,0,0,0,0,0,0,0,0,0,0,0,-2.2057,-2.2057,-2.2044,-2.2044,-2.2026,-2.2025,-2.2012,-2.2012,0,0,0,0,0,0,0,0,0,0,0,-2.2057,-2.2057,-2.2057,-2.2044,-2.2026,-2.2025,-2.2012,-2.2022,0,0,0,0,0,0,0,0,0,0,-2.2038,-2.2058,-2.2057,-2.2057,-2.2043,-2.2026,-2.2025,-2.2022,-2.2021,-2.2025,0,-2.2032,0,-2.2022,-2.2012,-2.2012,0,0,0,-2.2037,-2.2059,-2.2047,-2.2057,-2.2043,-2.2026,-2.2032,-2.2022,-2.2021,-2.2024,-2.2032,-2.2031,-2.2022,-2.2012,-2.2012,-2.2057,-2.2058,0,0,-2.2038,-2.2058,-2.2048,-2.2047,-2.2052,-2.2033,-2.2032,-2.2021,-2.203,-2.2032,-2.2031,-2.2022,-2.2012,-2.2012,-2.2057,-2.2057,0,0,0,-2.2045,-2.2059,-2.2047,-2.2047,-2.2044,-2.2032,-2.2031,-2.2031,-2.2025,-2.203,-2.2022,-2.2012,-2.2012,-2.2056,-2.2057,-2.21,0,0,0,-2.2046,-2.2063,-2.2047,-2.2059,-2.2044,-2.2037,-2.2041,-2.2026,-2.2024,-2.2022,-2.2012,-2.2012,-2.2056,-2.2057,-2.2097,-2.2117,0,0,0,-2.2055,-2.2064,-2.2064,-2.206,-2.2053,-2.2037,-2.2031,-2.2025,-2.2019,-2.2012,-2.2012,-2.2055,-2.2056,-2.2095,-2.2113,-2.2133,0,0,0,-2.2071,-2.2102,-2.2065,-2.2096,-2.2053,-2.2064,-2.2031,-2.2037,-2.2037,-2.2012,-2.2056,-2.2057,-2.2095,-2.2111,-2.2131,-2.2153,-2.2164,0,0,-2.2121,-2.2109,-2.2126,-2.2092,-2.2114,-2.2065,-2.2093,-2.2074,-2.2056,-2.2057,-2.2058,-2.2098,-2.2113,-2.2133,-2.2222,-2.2231,0,0,0,-2.2148,-2.2161,-2.2163,-2.2163,-2.215,-2.2139,-2.2114,-2.2106,-2.2107,-2.2061,-2.211,-2.2119,-2.2129,-2.2139,-2.2147,-2.2154,-2.2062,-2.2062,-2.2062,-2.2247,-2.2222,-2.2247,-2.222,-2.2221,-2.2193,-2.2191,-2.2176,-2.2151,-2.2162,-2.2163,-2.222,-2.2232,-2.2238,-2.2246,-2.2173,-2.2173,-2.2173,-2.2173,-2.2318,-2.2331,-2.2295,-2.2307,-2.228,-2.2289,-2.2263,-2.2245,-2.2248,-2.2218,-2.2226,-2.2195,-2.2248,-2.2254,-2.2176,-2.2176,-2.2175,-2.2175,-2.2175,-2.2379,-2.238,-2.2371,-2.2368,-2.2368,-2.2338,-2.2343,-2.2318,-2.2294,-2.2302,-2.2298,-2.2297,-2.2292,-2.2302,-2.2302,-2.2302,-2.2302,-2.2303,-2.2303,-2.2446,-2.2434,-2.2442,-2.2429,-2.2425,-2.2417,-2.2388,-2.2383,-2.2371,-2.2351,-2.2351,-2.2323,-2.2259,-2.2243,-2.2306,-2.2305,-2.2305,-2.2305,-2.2304,-2.2525,-2.2503,-2.2515,-2.2512,-2.2493,-2.2494,-2.2461,-2.2453,-2.2444,-2.2447,-2.2417,-2.2374,-2.2359,-2.2353,-2.2339,-2.2423,-2.2423,-2.2423,-2.2423,-2.2576,-2.2567,-2.2572,-2.2568,-2.256,-2.2531,-2.2543,-2.2521,-2.2494,-2.2486,-2.247,-2.245,-2.2445,-2.2434,-2.2425,-2.2412,-2.2513,-2.2513,-2.2513,-2.2623,-2.2611,-2.2628,-2.2602,-2.2586,-2.2571,-2.2581,-2.2575,-2.254,-2.2516,-2.248,-2.2476,-2.2443,-2.2434,-2.241,-2.2398,-2.2373,0,0]}]]